Time,TemperatureF,DewpointF,PressureIn,WindDirection,WindDirectionDegrees,WindSpeedMPH,WindSpeedGustMPH,Humidity,HourlyPrecipIn,Conditions,Clouds,dailyrainin,SoftwareType,DateUTC
2013-08-04 00:02:00,69.0,-99.9,-100.00,NNE,14,2.0,3.0,-999,0.00,,,0.00,,2013-08-04 05:02:00,
2013-08-04 00:12:00,69.0,-99.9,-100.00,NNE,14,2.0,3.0,-999,0.00,,,0.00,,2013-08-04 05:12:00,
2013-08-04 00:22:00,69.0,-99.9,-100.00,NNE,14,2.0,3.0,-999,0.00,,,0.00,,2013-08-04 05:22:00,
2013-08-04 00:32:00,68.0,-99.9,-100.00,NNW,343,2.0,3.0,-999,0.00,,,0.00,,2013-08-04 05:32:00,
2013-08-04 00:42:00,68.0,-99.9,-100.00,NNW,343,2.0,3.0,-999,0.00,,,0.00,,2013-08-04 05:42:00,
2013-08-04 00:52:00,68.0,-99.9,-100.00,NNW,343,2.0,3.0,-999,0.00,,,0.00,,2013-08-04 05:52:00,
2013-08-04 01:02:00,68.0,-99.9,-100.00,NNW,338,2.0,4.0,-999,0.00,,,0.00,,2013-08-04 06:02:00,
2013-08-04 01:12:00,68.0,-99.9,-100.00,NNW,338,2.0,4.0,-999,0.00,,,0.00,,2013-08-04 06:12:00,
2013-08-04 01:22:00,68.0,-99.9,-100.00,NNW,338,2.0,4.0,-999,0.00,,,0.00,,2013-08-04 06:22:00,
2013-08-04 01:43:00,67.0,-99.9,-100.00,NNE,29,1.0,3.0,-999,0.00,,,0.00,,2013-08-04 06:43:00,
2013-08-04 01:52:00,67.0,-99.9,-100.00,NNE,29,1.0,3.0,-999,0.00,,,0.00,,2013-08-04 06:52:00,
2013-08-04 02:12:00,66.0,-99.9,-100.00,NNW,340,2.0,4.0,-999,0.00,,,0.00,,2013-08-04 07:12:00,
2013-08-04 02:22:00,66.0,-99.9,-100.00,NNW,340,2.0,4.0,-999,0.00,,,0.00,,2013-08-04 07:22:00,
2013-08-04 02:43:00,65.0,-99.9,-100.00,NE,38,1.0,2.0,-999,0.00,,,0.00,,2013-08-04 07:43:00,
2013-08-04 02:53:00,65.0,-99.9,-100.00,NE,38,1.0,2.0,-999,0.00,,,0.00,,2013-08-04 07:53:00,
2013-08-04 03:12:00,66.0,-99.9,-100.00,NNE,31,4.0,6.0,-999,0.00,,,0.00,,2013-08-04 08:12:00,
2013-08-04 03:23:00,66.0,-99.9,-100.00,NNE,31,4.0,6.0,-999,0.00,,,0.00,,2013-08-04 08:23:00,
2013-08-04 03:43:00,66.0,-99.9,-100.00,NNE,30,5.0,6.0,-999,0.00,,,0.00,,2013-08-04 08:43:00,
2013-08-04 03:53:00,66.0,-99.9,-100.00,NNE,30,5.0,6.0,-999,0.00,,,0.00,,2013-08-04 08:53:00,
2013-08-04 04:12:00,62.0,-99.9,-100.00,East,99,4.0,4.0,-999,0.00,,,0.00,,2013-08-04 09:12:00,
2013-08-04 04:22:00,62.0,-99.9,-100.00,East,99,4.0,4.0,-999,0.00,,,0.00,,2013-08-04 09:22:00,
2013-08-04 04:32:00,64.0,-99.9,-100.00,NE,50,4.0,5.0,-999,0.00,,,0.00,,2013-08-04 09:32:00,
2013-08-04 04:43:00,64.0,-99.9,-100.00,NE,50,4.0,5.0,-999,0.00,,,0.00,,2013-08-04 09:43:00,
2013-08-04 04:52:00,64.0,-99.9,-100.00,NE,50,4.0,5.0,-999,0.00,,,0.00,,2013-08-04 09:52:00,
2013-08-04 05:12:00,64.0,-99.9,-100.00,NNE,32,5.0,7.0,-999,0.00,,,0.00,,2013-08-04 10:12:00,
2013-08-04 05:22:00,64.0,-99.9,-100.00,NNE,32,5.0,7.0,-999,0.00,,,0.00,,2013-08-04 10:22:00,
2013-08-04 05:32:00,64.0,-99.9,-100.00,NNE,14,4.0,5.0,-999,0.00,,,0.00,,2013-08-04 10:32:00,
2013-08-04 05:43:00,64.0,-99.9,-100.00,NNE,14,4.0,5.0,-999,0.00,,,0.00,,2013-08-04 10:43:00,
2013-08-04 05:53:00,64.0,-99.9,-100.00,NNE,14,4.0,5.0,-999,0.00,,,0.00,,2013-08-04 10:53:00,
2013-08-04 06:12:00,64.0,-99.9,-100.00,North,11,2.0,3.0,-999,0.00,,,0.00,,2013-08-04 11:12:00,
2013-08-04 06:22:00,64.0,-99.9,-100.00,North,11,2.0,3.0,-999,0.00,,,0.00,,2013-08-04 11:22:00,
2013-08-04 06:30:00,65.0,-99.9,-100.00,NNE,19,4.0,5.0,-999,0.00,,,0.00,,2013-08-04 11:30:00,
2013-08-04 06:32:00,63.0,-99.9,-100.00,North,5,4.0,6.0,-999,0.00,,,0.00,,2013-08-04 11:32:00,
2013-08-04 06:42:00,63.0,-99.9,-100.00,North,5,4.0,6.0,-999,0.00,,,0.00,,2013-08-04 11:42:00,
2013-08-04 06:53:00,63.0,-99.9,-100.00,North,5,4.0,6.0,-999,0.00,,,0.00,,2013-08-04 11:53:00,
2013-08-04 07:13:00,65.0,-99.9,-100.00,NNE,19,4.0,5.0,-999,0.00,,,0.00,,2013-08-04 12:13:00,
2013-08-04 08:13:00,66.0,-99.9,-100.00,NE,35,5.0,6.0,-999,0.00,,,0.00,,2013-08-04 13:13:00,
2013-08-04 08:22:00,66.0,-99.9,-100.00,NE,35,5.0,6.0,-999,0.00,,,0.00,,2013-08-04 13:22:00,
2013-08-04 08:32:00,68.0,-99.9,-100.00,NNE,16,4.0,6.0,-999,0.00,,,0.00,,2013-08-04 13:32:00,
2013-08-04 08:43:00,68.0,-99.9,-100.00,NNE,16,4.0,6.0,-999,0.00,,,0.00,,2013-08-04 13:43:00,
2013-08-04 08:52:00,68.0,-99.9,-100.00,NNE,16,4.0,6.0,-999,0.00,,,0.00,,2013-08-04 13:52:00,
2013-08-04 09:12:00,68.0,-99.9,-100.00,NE,39,5.0,7.0,-999,0.00,,,0.00,,2013-08-04 14:12:00,
2013-08-04 09:22:00,68.0,-99.9,-100.00,NE,39,5.0,7.0,-999,0.00,,,0.00,,2013-08-04 14:22:00,
2013-08-04 09:30:00,70.0,-99.9,-100.00,NE,44,4.0,6.0,-999,0.00,,,0.00,,2013-08-04 14:30:00,
2013-08-04 09:32:00,69.0,-99.9,-100.00,NE,52,5.0,7.0,-999,0.00,,,0.00,,2013-08-04 14:32:00,
2013-08-04 09:43:00,69.0,-99.9,-100.00,NE,52,5.0,7.0,-999,0.00,,,0.00,,2013-08-04 14:43:00,
2013-08-04 09:53:00,69.0,-99.9,-100.00,NE,52,5.0,7.0,-999,0.00,,,0.00,,2013-08-04 14:53:00,
2013-08-04 10:12:00,70.0,-99.9,-100.00,NE,44,4.0,6.0,-999,0.00,,,0.00,,2013-08-04 15:12:00,
2013-08-04 10:22:00,70.0,-99.9,-100.00,NE,44,4.0,6.0,-999,0.00,,,0.00,,2013-08-04 15:22:00,
2013-08-04 11:02:00,72.0,-99.9,-100.00,NE,52,5.0,6.0,-999,0.00,,,0.00,,2013-08-04 16:02:00,
2013-08-04 11:12:00,72.0,-99.9,-100.00,NE,52,5.0,6.0,-999,0.00,,,0.00,,2013-08-04 16:12:00,
2013-08-04 11:22:00,72.0,-99.9,-100.00,NE,52,5.0,6.0,-999,0.00,,,0.00,,2013-08-04 16:22:00,
2013-08-04 11:33:00,74.0,-99.9,-100.00,NNE,31,3.0,4.0,-999,0.00,,,0.00,,2013-08-04 16:33:00,
2013-08-04 11:43:00,74.0,-99.9,-100.00,NNE,31,3.0,4.0,-999,0.00,,,0.00,,2013-08-04 16:43:00,
2013-08-04 11:53:00,74.0,-99.9,-100.00,NNE,31,3.0,4.0,-999,0.00,,,0.00,,2013-08-04 16:53:00,
2013-08-04 12:12:00,75.0,-99.9,-100.00,NE,40,4.0,6.0,-999,0.00,,,0.00,,2013-08-04 17:12:00,
2013-08-04 12:22:00,75.0,-99.9,-100.00,NE,40,4.0,6.0,-999,0.00,,,0.00,,2013-08-04 17:22:00,
2013-08-04 12:32:00,78.0,-99.9,-100.00,ENE,60,3.0,5.0,-999,0.00,,,0.00,,2013-08-04 17:32:00,
2013-08-04 12:43:00,78.0,-99.9,-100.00,ENE,60,3.0,5.0,-999,0.00,,,0.00,,2013-08-04 17:43:00,
2013-08-04 12:53:00,78.0,-99.9,-100.00,ENE,60,3.0,5.0,-999,0.00,,,0.00,,2013-08-04 17:53:00,
2013-08-04 13:02:00,79.0,-99.9,-100.00,NE,36,3.0,5.0,-999,0.00,,,-99.99,,2013-08-04 18:02:00,
2013-08-04 13:12:00,79.0,-99.9,-100.00,NE,36,3.0,5.0,-999,0.00,,,-99.99,,2013-08-04 18:12:00,
2013-08-04 13:23:00,79.0,-99.9,-100.00,NE,36,3.0,5.0,-999,0.00,,,-99.99,,2013-08-04 18:23:00,
2013-08-04 13:33:00,77.0,-99.9,-100.00,NE,51,3.0,5.0,-999,0.00,,,0.00,,2013-08-04 18:33:00,
2013-08-04 13:43:00,77.0,-99.9,-100.00,NE,51,3.0,5.0,-999,0.00,,,0.00,,2013-08-04 18:43:00,
2013-08-04 13:52:00,77.0,-99.9,-100.00,NE,51,3.0,5.0,-999,0.00,,,0.00,,2013-08-04 18:52:00,
2013-08-04 14:02:00,77.0,-99.9,-100.00,NNE,29,2.0,3.0,-999,0.00,,,0.00,,2013-08-04 19:02:00,
2013-08-04 14:12:00,77.0,-99.9,-100.00,NNE,29,2.0,3.0,-999,0.00,,,0.00,,2013-08-04 19:12:00,
2013-08-04 14:22:00,77.0,-99.9,-100.00,NNE,29,2.0,3.0,-999,0.00,,,0.00,,2013-08-04 19:22:00,
2013-08-04 14:44:00,79.0,-99.9,-100.00,SE,125,3.0,8.0,-999,0.00,,,0.00,,2013-08-04 19:44:00,
2013-08-04 14:53:00,79.0,-99.9,-100.00,SE,125,3.0,8.0,-999,0.00,,,0.00,,2013-08-04 19:53:00,
2013-08-04 15:02:00,80.0,-99.9,-100.00,NNW,337,2.0,4.0,-999,0.00,,,0.00,,2013-08-04 20:02:00,
2013-08-04 15:13:00,80.0,-99.9,-100.00,NNW,337,2.0,4.0,-999,0.00,,,0.00,,2013-08-04 20:13:00,
2013-08-04 15:22:00,80.0,-99.9,-100.00,NNW,337,2.0,4.0,-999,0.00,,,0.00,,2013-08-04 20:22:00,
2013-08-04 15:33:00,78.0,-99.9,-100.00,SW,229,0.0,2.0,-999,0.00,,,0.00,,2013-08-04 20:33:00,
2013-08-04 15:43:00,78.0,-99.9,-100.00,SW,229,0.0,2.0,-999,0.00,,,0.00,,2013-08-04 20:43:00,
2013-08-04 15:53:00,78.0,-99.9,-100.00,SW,229,0.0,2.0,-999,0.00,,,0.00,,2013-08-04 20:53:00,
2013-08-04 16:12:00,79.0,-99.9,-100.00,NE,56,3.0,5.0,-999,0.00,,,0.00,,2013-08-04 21:12:00,
2013-08-04 16:22:00,79.0,-99.9,-100.00,NE,56,3.0,5.0,-999,0.00,,,0.00,,2013-08-04 21:22:00,
2013-08-04 16:43:00,79.0,-99.9,-100.00,NNE,31,4.0,4.0,-999,0.00,,,0.00,,2013-08-04 21:43:00,
2013-08-04 16:53:00,79.0,-99.9,-100.00,NNE,31,4.0,4.0,-999,0.00,,,0.00,,2013-08-04 21:53:00,
2013-08-04 17:12:00,79.0,-99.9,-100.00,NE,41,5.0,7.0,-999,0.00,,,0.00,,2013-08-04 22:12:00,
2013-08-04 17:22:00,79.0,-99.9,-100.00,NE,41,5.0,7.0,-999,0.00,,,0.00,,2013-08-04 22:22:00,
2013-08-04 17:32:00,79.0,-99.9,-100.00,NE,56,4.0,5.0,-999,0.00,,,0.00,,2013-08-04 22:32:00,
2013-08-04 17:43:00,79.0,-99.9,-100.00,NE,56,4.0,5.0,-999,0.00,,,0.00,,2013-08-04 22:43:00,
2013-08-04 17:53:00,79.0,-99.9,-100.00,NE,56,4.0,5.0,-999,0.00,,,0.00,,2013-08-04 22:53:00,
2013-08-04 18:02:00,79.0,-99.9,-100.00,East,99,4.0,8.0,-999,0.00,,,0.00,,2013-08-04 23:02:00,
2013-08-04 18:12:00,79.0,-99.9,-100.00,East,99,4.0,8.0,-999,0.00,,,0.00,,2013-08-04 23:12:00,
2013-08-04 18:23:00,79.0,-99.9,-100.00,East,99,4.0,8.0,-999,0.00,,,0.00,,2013-08-04 23:23:00,
2013-08-04 18:32:00,80.0,-99.9,-100.00,ESE,112,3.0,4.0,-999,0.00,,,0.00,,2013-08-04 23:32:00,
2013-08-04 18:43:00,80.0,-99.9,-100.00,ESE,112,3.0,4.0,-999,0.00,,,0.00,,2013-08-04 23:43:00,
2013-08-04 18:53:00,80.0,-99.9,-100.00,ESE,112,3.0,4.0,-999,0.00,,,0.00,,2013-08-04 23:53:00,
2013-08-04 19:02:00,79.0,-99.9,-100.00,SE,139,3.0,4.0,-999,0.00,,,0.00,,2013-08-05 00:02:00,
2013-08-04 19:12:00,79.0,-99.9,-100.00,SE,139,3.0,4.0,-999,0.00,,,0.00,,2013-08-05 00:12:00,
2013-08-04 19:22:00,79.0,-99.9,-100.00,SE,139,3.0,4.0,-999,0.00,,,0.00,,2013-08-05 00:22:00,
2013-08-04 19:43:00,79.0,-99.9,-100.00,SSE,147,3.0,4.0,-999,0.00,,,0.00,,2013-08-05 00:43:00,
2013-08-04 19:52:00,79.0,-99.9,-100.00,SSE,147,3.0,4.0,-999,0.00,,,0.00,,2013-08-05 00:52:00,
2013-08-04 20:12:00,81.0,-99.9,-100.00,ESE,115,2.0,3.0,-999,0.00,,,0.00,,2013-08-05 01:12:00,
2013-08-04 20:22:00,81.0,-99.9,-100.00,ESE,115,2.0,3.0,-999,0.00,,,0.00,,2013-08-05 01:22:00,
2013-08-04 20:33:00,79.0,-99.9,-100.00,East,96,3.0,3.0,-999,0.00,,,0.00,,2013-08-05 01:33:00,
2013-08-04 20:43:00,79.0,-99.9,-100.00,East,96,3.0,3.0,-999,0.00,,,0.00,,2013-08-05 01:43:00,
2013-08-04 20:52:00,79.0,-99.9,-100.00,East,96,3.0,3.0,-999,0.00,,,0.00,,2013-08-05 01:52:00,
2013-08-04 21:02:00,72.0,-99.9,-100.00,East,94,3.0,4.0,-999,-99.99,,,0.00,,2013-08-05 02:02:00,
2013-08-04 21:12:00,72.0,-99.9,-100.00,East,94,3.0,4.0,-999,-99.99,,,0.00,,2013-08-05 02:12:00,
2013-08-04 21:22:00,72.0,-99.9,-100.00,East,94,3.0,4.0,-999,-99.99,,,0.00,,2013-08-05 02:22:00,
2013-08-04 21:33:00,71.0,-99.9,-100.00,ENE,68,1.0,2.0,-999,0.00,,,0.00,,2013-08-05 02:33:00,
2013-08-04 21:43:00,71.0,-99.9,-100.00,ENE,68,1.0,2.0,-999,0.00,,,0.00,,2013-08-05 02:43:00,
2013-08-04 21:53:00,71.0,-99.9,-100.00,ENE,68,1.0,2.0,-999,0.00,,,0.00,,2013-08-05 02:53:00,
2013-08-04 22:02:00,68.0,-99.9,-100.00,East,96,2.0,3.0,-999,0.00,,,0.00,,2013-08-05 03:02:00,
2013-08-04 22:12:00,68.0,-99.9,-100.00,East,96,2.0,3.0,-999,0.00,,,0.00,,2013-08-05 03:12:00,
2013-08-04 22:22:00,68.0,-99.9,-100.00,East,96,2.0,3.0,-999,0.00,,,0.00,,2013-08-05 03:22:00,
2013-08-04 22:32:00,68.0,-99.9,-100.00,East,100,2.0,2.0,-999,0.00,,,0.00,,2013-08-05 03:32:00,
2013-08-04 22:42:00,68.0,-99.9,-100.00,East,100,2.0,2.0,-999,0.00,,,0.00,,2013-08-05 03:42:00,
2013-08-04 22:53:00,68.0,-99.9,-100.00,East,100,2.0,2.0,-999,0.00,,,0.00,,2013-08-05 03:53:00,
2013-08-04 23:02:00,71.0,-99.9,-100.00,ENE,70,2.0,3.0,-999,0.00,,,0.00,,2013-08-05 04:02:00,
2013-08-04 23:12:00,71.0,-99.9,-100.00,ENE,70,2.0,3.0,-999,0.00,,,0.00,,2013-08-05 04:12:00,
2013-08-04 23:22:00,71.0,-99.9,-100.00,ENE,70,2.0,3.0,-999,0.00,,,0.00,,2013-08-05 04:22:00,
2013-08-04 23:32:00,70.0,-99.9,-100.00,East,81,2.0,3.0,-999,0.00,,,0.00,,2013-08-05 04:32:00,
2013-08-04 23:43:00,70.0,-99.9,-100.00,East,81,2.0,3.0,-999,0.00,,,0.00,,2013-08-05 04:43:00,
2013-08-04 23:52:00,70.0,-99.9,-100.00,East,81,2.0,3.0,-999,0.00,,,0.00,,2013-08-05 04:52:00,